This is the latest recevied weather packets stored in our database for station/object IW8RUI-5. If no packets are shown the sender has not sent any weather packets the latest 10 day(s).
| Time | Temp. | Humidity | Pressure | Rain* | Wind** | Luminosity | Snow |
|---|---|---|---|---|---|---|---|
| 1777650866 | 8.33° C | 10% | 1010 hPa | 0 mm | - | - | - |
| 1777649966 | 8.89° C | 11% | 1010 hPa | 0 mm | - | - | - |
| 1777649666 | 10° C | 14% | 1010 hPa | 0 mm | - | - | - |
| 1777649366 | 10° C | 11% | 1010 hPa | 0 mm | - | - | - |
| 1777649066 | 10° C | 10% | 1010 hPa | 0 mm | - | - | - |
| 1777648767 | 10° C | 10% | 1010 hPa | 0 mm | - | - | - |
| 1777648466 | 9.44° C | 11% | 1010 hPa | 0 mm | - | - | - |
| 1777648163 | 10° C | 10% | 1010 hPa | 0 mm | - | - | - |
| 1777647866 | 9.44° C | 14% | 1010 hPa | 0 mm | - | - | - |
| 1777647566 | 9.44° C | 10% | 1010 hPa | 0 mm | - | - | - |
| 1777646366 | 8.33° C | 10% | 1010 hPa | 0 mm | - | - | - |
| 1777646065 | 8.33° C | 10% | 1010 hPa | 0 mm | - | - | - |
| 1777645766 | 8.33° C | 10% | 1010 hPa | 0 mm | - | - | - |
| 1777645466 | 8.33° C | 10% | 1010 hPa | 0 mm | - | - | - |
| 1777645170 | 8.33° C | 10% | 1010 hPa | 0 mm | - | - | - |
| 1777644866 | 8.33° C | 10% | 1011 hPa | 0 mm | - | - | - |
| 1777644565 | 8.89° C | 10% | 1011 hPa | 0 mm | - | - | - |
| 1777643965 | 8.89° C | 10% | 1011 hPa | 0 mm | - | - | - |
| 1777643366 | 8.89° C | 10% | 1011 hPa | 0 mm | - | - | - |
| 1777642766 | 9.44° C | 10% | 1011 hPa | 0 mm | - | - | - |
| 1777642465 | 8.89° C | 10% | 1011 hPa | 0 mm | - | - | - |
| 1777642166 | 8.89° C | 10% | 1011 hPa | 0 mm | - | - | - |
| 1777641866 | 9.44° C | 10% | 1011 hPa | 0 mm | - | - | - |
| 1777641566 | 10° C | 10% | 1011 hPa | 0 mm | - | - | - |
| 1777641265 | 9.44° C | 10% | 1011 hPa | 0 mm | - | - | - |
* Rain latest hour (hover to see other rain measurements)
** Current wind speed in m/s (hover to see current wind gust speed)